Regional Weather Roundup
Issued by NWS State College, PA

Home | Current Version | Previous Version | Text Only | Print | Product List | Glossary On
Versions: 1 2 3 4 5 6 7 8 9 10 11 12 13 14 15 16 17 18 19 20 21 22 23 24 25 26 27 28 29 30 31 32 33 34 35 36 37 38 39 40 41 42 43 44 45 46 47 48 49 50
000
ASUS41 KCTP 111910
RWRCTP

REGIONAL WEATHER ROUNDUP
NATIONAL WEATHER SERVICE STATE COLLEGE PA
200 PM EST THU FEB 11 2016

Note: "fair" indicates few or no clouds below 12,000 feet with no
significant weather and/or obstructions to visibility.

* = STATION THAT DOES NOT REPORT PRECIPITATION /E.G. RAIN...SNOW...ETC/
    THUNDER OR FOG.

PAZ002>004-007>009-013>016-020>023-029>032-112000-
WESTERN PENNSYLVANIA

CITY           SKY/WX    TMP DP  RH WIND       PRES   REMARKS
ERIE           CLOUDY    17   6  62 W17G24    30.13R HAZE    WCI   1
MEADVILLE      CLOUDY    15  -1  49 W13G24    30.07S WCI   1
FRANKLIN*      CLOUDY    14  -2  48 NW10G22   30.08R WCI   1
NEW CASTLE     FLURRIES  18  10  73 W9        30.14S WCI   6
BEAVER COUNTY  CLOUDY    19   5  53 W15G22    30.12S WCI   5
BUTLER*        CLOUDY    16   3  57 NW10G23   30.14R WCI   3
PITTSBURGH INT PTSUNNY   16   2  54 W22       30.12S WCI  -2
PITTSBURGH     CLOUDY    19   2  47 W14G26    30.11S WCI   6
INDIANA*       PTSUNNY   16   7  67 NW17G24   30.09F HAZE    WCI   0
LATROBE        FLURRIES  16   5  62 W25       30.12F WCI  -3
WASHINGTON CO* PTSUNNY   18   3  53 W16       30.15R WCI   3
$$

PAZ004>006-010>012-017>019-024>028-033>037-041-042-045-046-049>053-112000-
CENTRAL PENNSYLVANIA

CITY           SKY/WX    TMP DP  RH WIND       PRES   REMARKS
BRADFORD       CLOUDY    12   1  61 NW22G31   29.91S BLWGSNOWWCI  -7
DUBOIS         CLOUDY    13   0  56 W22G31    29.98R WCI  -6
CLEARFIELD     CLOUDY    17  -1  45 W23G32    29.99R WCI  -1
JOHNSTOWN      LGT SNOW  12   1  61 W22G32    29.95F WCI  -7
ALTOONA        FLURRIES  15   5  64 W17G25    30.02R WCI  -1
STATE COLLEGE  CLOUDY    18   3  53 W17G30    29.99S WCI   2
WILLIAMSPORT   CLOUDY    20   4  50 W18G25    29.99S WCI   5
SELINSGROVE    FLURRIES  21   4  47 W14G24    30.02R WCI   8
FT INDIANTOWN  PTSUNNY   21   3  45 W15G35    30.01R WCI   8
CAPITAL CITY   CLOUDY    22   2  42 W15G31    30.05S WCI   9
HARRISBURG     PTSUNNY   23   7  50 NW25G36   30.04S WCI   7
YORK           PTSUNNY   21   3  45 NW15G25   30.05S WCI   8
$$

PAZ038>040-043-044-047-048-054-055-060>062-067>071-112000-
EASTERN PENNSYLVANIA

CITY           SKY/WX    TMP DP  RH WIND       PRES   REMARKS
SCRANTON       CLOUDY    19  -1  41 NW20G30   29.90R WCI   3
MOUNT POCONO   CLOUDY    15  -3  44 NW16G33   29.78S WCI  -1
ALLENTOWN      CLOUDY    22   6  50 W21G30    29.97R WCI   6
QUAKERTOWN*    MOCLDY    23   0  36 NW12G22   29.97R WCI  12
READING        CLOUDY    22   6  50 W23G31    30.00R WCI   6
LANCASTER      PTSUNNY   20   5  52 NW22G30   30.02S WCI   3
COATESVILLE    CLEAR     19   7  58 W21G28    30.01S WCI   3
POTTSTOWN      CLOUDY    23   5  46 W15G32    30.01R WCI  10
BLUE BELL        N/A     25   3  39 W13G23    29.98S WCI  13
DOYLESTOWN     CLOUDY    23   0  36 W15G25    29.95S WCI  10
WILLOW GROVE   NOT AVBL
NORTH PHILA    PTSUNNY   25   4  40 W17G30    30.01S WCI  12
PHILADELPHIA   PTSUNNY   26  -2  29 W22G32    30.03S WCI  12
$$



USA.gov is the U.S. government's official web portal to all federal, state and local government web resources and services.